Location: Natural Bridges National Monument
(37.6093°N, 109.9767°W)
Time: 22:56:51
(UTC-07:00)

Cosmos 1727 Rocket - Visible Passes

Search period start: 19 December 2014 00:00
Search period end: 29 December 2014 00:00
Orbit: 962 x 996 km, 82.9° (Epoch: 18 December)

Date Brightness Start Highest point End Pass type
(mag) Time Alt. Az. Time Alt. Az. Time Alt. Az.
19 Dec 6.9 04:46:59 10° E 04:49:09 12° E 04:51:19 10° ENE visible
19 Dec 4.0 06:27:24 10° S 06:33:38 85° W 06:39:57 10° N visible
19 Dec 4.0 17:25:58 10° N 17:32:20 74° E 17:38:38 10° SSE visible
19 Dec 6.8 19:13:42 10° NW 19:16:57 15° W 19:20:12 10° WSW visible
20 Dec 6.2 05:10:14 10° SE 05:15:04 24° E 05:19:55 10° NNE visible
20 Dec 4.3 06:54:12 10° SSW 07:00:07 45° WNW 07:06:08 10° N visible
20 Dec 4.7 17:52:26 10° NNW 17:58:40 60° W 18:04:51 10° S visible
21 Dec 5.1 05:35:16 10° SSE 05:41:09 46° E 05:47:06 10° NNE visible
21 Dec 5.9 18:19:22 10° NNW 18:24:50 32° W 18:30:17 10° SSW visible
22 Dec 7.0 04:22:05 10° E 04:23:02 10° ENE 04:24:00 10° ENE visible
22 Dec 4.0 06:01:11 10° S 06:07:25 87° E 06:13:45 10° N visible
22 Dec 6.7 18:47:05 10° NW 18:50:49 17° W 18:54:33 10° WSW visible
23 Dec 6.3 04:44:21 10° SE 04:48:55 22° E 04:53:30 10° NE visible
23 Dec 4.2 06:27:50 10° SSW 06:33:52 50° W 06:39:59 10° N visible
23 Dec 4.6 17:26:11 10° NNW 17:32:29 67° W 17:38:43 10° S visible
24 Dec 5.2 05:09:12 10° SSE 05:14:58 41° E 05:20:49 10° NNE visible
24 Dec 4.9 06:55:20 10° SW 07:00:31 27° WNW 07:05:46 10° NNW visible
24 Dec 5.8 17:53:01 10° NNW 17:58:41 35° W 18:04:17 10° SSW visible
25 Dec 4.1 05:34:59 10° S 05:41:12 79° E 05:47:31 10° N visible
25 Dec 6.7 18:20:34 10° NW 18:24:42 19° W 18:28:49 10° SW visible
26 Dec 6.3 04:18:30 10° SE 04:22:46 20° E 04:27:03 10° NE visible
26 Dec 4.0 06:01:31 10° SSW 06:07:38 56° W 06:13:50 10° N visible
27 Dec 5.3 04:43:09 10° SSE 04:48:48 37° E 04:54:30 10° NNE visible
27 Dec 4.7 06:28:51 10° SW 06:34:14 30° WNW 06:39:43 10° NNW visible
27 Dec 5.6 17:26:43 10° NNW 17:32:31 39° W 17:38:16 10° SSW visible
28 Dec 4.2 05:08:48 10° S 05:15:00 71° E 05:21:18 10° NNE visible
28 Dec 5.3 06:57:22 10° WSW 07:01:04 16° WNW 07:04:48 10° NNW visible
28 Dec 6.6 17:54:05 10° NW 17:58:33 21° W 18:03:01 10° SW visible
